World > North America > United States > Texas

Fort Stockton, Texas Regional Weather

Lat: 30.89N, Lon: 102.89W
Wx Zone: TXZ075Web Search
Fort Stockton Weather Warning NWS WEATHER ALERT FOR THE FORT STOCKTON, TX AREA - Issued: 228 AM CDT Fri Apr 16 2021 Fort Stockton Weather Warning  

If you are on your PC, you can easily pass this page to your phone by scanning the QR Code near the bottom with your camera.

Feedback


°F Click to change Fort Stockton hourly weather to Imperial units.Click to change Fort Stockton hourly weather to Metric units. °C
Fort Stockton Weather Map
UTC Time: 4/16/2021, 13:35
Your Time:

Fort Stockton, TX Regional Weather

Expires:202104161400;;641524
ASUS44 KSJT 161315
RWRSJT
WEST CENTRAL TEXAS REGIONAL WEATHER ROUNDUP
NATIONAL WEATHER SERVICE SAN ANGELO TX
800 AM CDT FRI APR 16 2021

NOTE: "FAIR" INDICATES FEW OR NO CLOUDS BELOW 12,000 FEET WITH NO
SIGNIFICANT WEATHER AND/OR OBSTRUCTIONS TO VISIBILITY.


TXZ075-082-271-274-277-419-161400-
FAR WEST/SOUTHWEST MOUNTAINS/TRANS PECOS
  
CITY           SKY/WX    TMP DP  RH WIND       PRES   REMARKS
ALPINE         SUNNY     56  28  33 SW5       29.97R                  
DRYDEN           N/A     63  62  97 MISG      29.83R                  
EL PASO        MOCLDY    63  14  15 N3        29.89R                  
FORT STOCKTON  CLEAR     61  50  67 W9        29.84R                  
GUADALUPE PASS CLEAR     57   6  13 W14G29    29.93R                  
MARFA          CLEAR     56  19  23 NW9       29.94R                  
PECOS          CLOUDY    54  54  97 W3        29.84S                  
$$


SKY/WX - Weather  TMP - Temperature  DP - Dew Point  RH - Relative Humidity
WIND - Wind Direction/Speed PRES - Barometric Pressure VSB - Visibility
WCI - Wind Chill Index E13G22 Wind - East Wind 13 mph/Gusts of 22 mph